Location: Beaufort Park
(39.1418°N, 76.9433°W)
Time: 00:23:08
(UTC+00:00)

USA 306 - Pass Details

Date: 29 October 2020
Orbit: 569 x 576 km, 54.0° (Epoch: 30 November)

Event Time Altitude Azimuth Distance (km) Brightness Sun altitude
Rises 22:43:08 0° 318° (NW) 2,791 6.9 -7.1°
Reaches altitude 10° 22:45:52 10° 335° (NNW) 1,889 5.7 -7.6°
Maximum altitude 22:49:09 21° 25° (NNE) 1,320 4.4 -8.3°
Enters shadow 22:52:08 11° 72° (ENE) 1,797 4.8 -8.8°
